Location: Bo?a Wola
(50.4192°N, 19.7966°E)
Time: 11:51:33
(UTC+00:00)

Cosmos 1869 - Pass Details

Date: 15 June 2024
Orbit: 490 x 527 km, 82.5° (Epoch: 15 July)

Event Time Altitude Azimuth Distance (km) Brightness Sun altitude
Rises 00:03:11 0° 351° (N) 2,589 7.9 -14.1°
Reaches altitude 10° 00:05:19 10° 353° (N) 1,699 6.8 -14.0°
Maximum altitude 00:09:02 77° 80° (E) 512 3.2 -13.8°
Enters shadow 00:11:41 18° 164° (SSE) 1,264 4.7 -13.6°
